owner,sensor,date,latitude,longitude,vertical_datum,sea_water_temperature,qcFlag 
ENP,ioos.station.NOAA.NDBC:PKYF1:1,2017-12-01T00:00:00Z,24.9180,-80.7470,1.0,25.2,2 
ENP,ioos.station.NOAA.NDBC:PKYF1:1,2017-12-01T01:00:00Z,24.9180,-80.7470,1.0,25.15,2 
ENP,ioos.station.NOAA.NDBC:PKYF1:1,2017-12-01T02:00:00Z,24.9180,-80.7470,1.0,24.87,2 
ENP,ioos.station.NOAA.NDBC:PKYF1:1,2017-12-01T04:00:00Z,24.9180,-80.7470,1.0,25.09,2 
ENP,ioos.station.NOAA.NDBC:PKYF1:1,2017-12-01T05:00:00Z,24.9180,-80.7470,1.0,24.84,2 
ENP,ioos.station.NOAA.NDBC:PKYF1:1,2017-12-01T07:00:00Z,24.9180,-80.7470,1.0,24.63,2 
ENP,ioos.station.NOAA.NDBC:PKYF1:1,2017-12-01T08:00:00Z,24.9180,-80.7470,1.0,24.54,2 
ENP,ioos.station.NOAA.NDBC:PKYF1:1,2017-12-01T09:00:00Z,24.9180,-80.7470,1.0,24.44,2 
ENP,ioos.station.NOAA.NDBC:PKYF1:1,2017-12-01T10:00:00Z,24.9180,-80.7470,1.0,24.33,2 
ENP,ioos.station.NOAA.NDBC:PKYF1:1,2017-12-01T12:00:00Z,24.9180,-80.7470,1.0,24.01,2 
ENP,ioos.station.NOAA.NDBC:PKYF1:1,2017-12-01T13:00:00Z,24.9180,-80.7470,1.0,23.9,2 
ENP,ioos.station.NOAA.NDBC:PKYF1:1,2017-12-01T14:00:00Z,24.9180,-80.7470,1.0,23.86,2 
ENP,ioos.station.NOAA.NDBC:PKYF1:1,2017-12-01T15:00:00Z,24.9180,-80.7470,1.0,24.24,2 
ENP,ioos.station.NOAA.NDBC:PKYF1:1,2017-12-01T16:00:00Z,24.9180,-80.7470,1.0,24.59,2 
ENP,ioos.station.NOAA.NDBC:PKYF1:1,2017-12-01T17:00:00Z,24.9180,-80.7470,1.0,24.82,2 
ENP,ioos.station.NOAA.NDBC:PKYF1:1,2017-12-01T18:00:00Z,24.9180,-80.7470,1.0,25.03,2 
ENP,ioos.station.NOAA.NDBC:PKYF1:1,2017-12-01T19:00:00Z,24.9180,-80.7470,1.0,25.24,2 
ENP,ioos.station.NOAA.NDBC:PKYF1:1,2017-12-01T20:00:00Z,24.9180,-80.7470,1.0,25.45,2 
ENP,ioos.station.NOAA.NDBC:PKYF1:1,2017-12-02T08:00:00Z,24.9180,-80.7470,1.0,24.44,2 
ENP,ioos.station.NOAA.NDBC:PKYF1:1,2017-12-02T09:00:00Z,24.9180,-80.7470,1.0,24.39,2 
ENP,ioos.station.NOAA.NDBC:PKYF1:1,2017-12-02T10:00:00Z,24.9180,-80.7470,1.0,24.35,2 
ENP,ioos.station.NOAA.NDBC:PKYF1:1,2017-12-02T12:00:00Z,24.9180,-80.7470,1.0,24.16,2 
ENP,ioos.station.NOAA.NDBC:PKYF1:1,2017-12-02T13:00:00Z,24.9180,-80.7470,1.0,23.95,2 
ENP,ioos.station.NOAA.NDBC:PKYF1:1,2017-12-02T14:00:00Z,24.9180,-80.7470,1.0,24.14,2 
ENP,ioos.station.NOAA.NDBC:PKYF1:1,2017-12-02T15:00:00Z,24.9180,-80.7470,1.0,24.26,2 
ENP,ioos.station.NOAA.NDBC:PKYF1:1,2017-12-02T16:00:00Z,24.9180,-80.7470,1.0,24.37,2 
ENP,ioos.station.NOAA.NDBC:PKYF1:1,2017-12-02T17:00:00Z,24.9180,-80.7470,1.0,24.67,2 
ENP,ioos.station.NOAA.NDBC:PKYF1:1,2017-12-02T18:00:00Z,24.9180,-80.7470,1.0,24.92,2 
ENP,ioos.station.NOAA.NDBC:PKYF1:1,2017-12-02T19:00:00Z,24.9180,-80.7470,1.0,25.09,2 
ENP,ioos.station.NOAA.NDBC:PKYF1:1,2017-12-02T20:00:00Z,24.9180,-80.7470,1.0,25.18,2 
ENP,ioos.station.NOAA.NDBC:PKYF1:1,2017-12-02T21:00:00Z,24.9180,-80.7470,1.0,25.31,2 
ENP,ioos.station.NOAA.NDBC:PKYF1:1,2017-12-02T22:00:00Z,24.9180,-80.7470,1.0,25.24,2 
ENP,ioos.station.NOAA.NDBC:PKYF1:1,2017-12-03T00:00:00Z,24.9180,-80.7470,1.0,24.94,2 
ENP,ioos.station.NOAA.NDBC:PKYF1:1,2017-12-03T01:00:00Z,24.9180,-80.7470,1.0,24.82,2 
ENP,ioos.station.NOAA.NDBC:PKYF1:1,2017-12-03T02:00:00Z,24.9180,-80.7470,1.0,24.67,2 
ENP,ioos.station.NOAA.NDBC:PKYF1:1,2017-12-03T04:00:00Z,24.9180,-80.7470,1.0,24.51,2 
ENP,ioos.station.NOAA.NDBC:PKYF1:1,2017-12-03T05:00:00Z,24.9180,-80.7470,1.0,24.4,2 
ENP,ioos.station.NOAA.NDBC:PKYF1:1,2017-12-03T07:00:00Z,24.9180,-80.7470,1.0,24.27,2 
ENP,ioos.station.NOAA.NDBC:PKYF1:1,2017-12-03T08:00:00Z,24.9180,-80.7470,1.0,24.22,2 
ENP,ioos.station.NOAA.NDBC:PKYF1:1,2017-12-03T09:00:00Z,24.9180,-80.7470,1.0,24.2,2 
ENP,ioos.station.NOAA.NDBC:PKYF1:1,2017-12-03T10:00:00Z,24.9180,-80.7470,1.0,24.18,2 
ENP,ioos.station.NOAA.NDBC:PKYF1:1,2017-12-03T13:00:00Z,24.9180,-80.7470,1.0,23.87,2 
ENP,ioos.station.NOAA.NDBC:PKYF1:1,2017-12-03T14:00:00Z,24.9180,-80.7470,1.0,23.91,2 
ENP,ioos.station.NOAA.NDBC:PKYF1:1,2017-12-03T15:00:00Z,24.9180,-80.7470,1.0,24.2,2 
ENP,ioos.station.NOAA.NDBC:PKYF1:1,2017-12-03T16:00:00Z,24.9180,-80.7470,1.0,24.38,2 
ENP,ioos.station.NOAA.NDBC:PKYF1:1,2017-12-03T17:00:00Z,24.9180,-80.7470,1.0,24.59,2 
ENP,ioos.station.NOAA.NDBC:PKYF1:1,2017-12-03T18:00:00Z,24.9180,-80.7470,1.0,24.73,2 
ENP,ioos.station.NOAA.NDBC:PKYF1:1,2017-12-03T19:00:00Z,24.9180,-80.7470,1.0,24.93,2 
ENP,ioos.station.NOAA.NDBC:PKYF1:1,2017-12-03T20:00:00Z,24.9180,-80.7470,1.0,25.03,2 
ENP,ioos.station.NOAA.NDBC:PKYF1:1,2017-12-03T21:00:00Z,24.9180,-80.7470,1.0,25.08,2 
ENP,ioos.station.NOAA.NDBC:PKYF1:1,2017-12-03T22:00:00Z,24.9180,-80.7470,1.0,25.08,2 
ENP,ioos.station.NOAA.NDBC:PKYF1:1,2017-12-03T23:00:00Z,24.9180,-80.7470,1.0,24.95,2 
ENP,ioos.station.NOAA.NDBC:PKYF1:1,2017-12-04T02:00:00Z,24.9180,-80.7470,1.0,24.54,2 
ENP,ioos.station.NOAA.NDBC:PKYF1:1,2017-12-04T04:00:00Z,24.9180,-80.7470,1.0,24.42,2 
ENP,ioos.station.NOAA.NDBC:PKYF1:1,2017-12-04T05:00:00Z,24.9180,-80.7470,1.0,24.21,2 
ENP,ioos.station.NOAA.NDBC:PKYF1:1,2017-12-04T07:00:00Z,24.9180,-80.7470,1.0,24.18,2 
ENP,ioos.station.NOAA.NDBC:PKYF1:1,2017-12-04T08:00:00Z,24.9180,-80.7470,1.0,24.12,2 
ENP,ioos.station.NOAA.NDBC:PKYF1:1,2017-12-04T09:00:00Z,24.9180,-80.7470,1.0,24.13,2 
ENP,ioos.station.NOAA.NDBC:PKYF1:1,2017-12-04T10:00:00Z,24.9180,-80.7470,1.0,24.17,2 
ENP,ioos.station.NOAA.NDBC:PKYF1:1,2017-12-04T12:00:00Z,24.9180,-80.7470,1.0,23.95,2 
ENP,ioos.station.NOAA.NDBC:PKYF1:1,2017-12-04T13:00:00Z,24.9180,-80.7470,1.0,23.92,2 
ENP,ioos.station.NOAA.NDBC:PKYF1:1,2017-12-04T14:00:00Z,24.9180,-80.7470,1.0,23.95,2 
ENP,ioos.station.NOAA.NDBC:PKYF1:1,2017-12-04T15:00:00Z,24.9180,-80.7470,1.0,24.14,2 
ENP,ioos.station.NOAA.NDBC:PKYF1:1,2017-12-04T16:00:00Z,24.9180,-80.7470,1.0,24.17,2 
ENP,ioos.station.NOAA.NDBC:PKYF1:1,2017-12-04T17:00:00Z,24.9180,-80.7470,1.0,24.47,2 
ENP,ioos.station.NOAA.NDBC:PKYF1:1,2017-12-04T18:00:00Z,24.9180,-80.7470,1.0,24.67,2 
ENP,ioos.station.NOAA.NDBC:PKYF1:1,2017-12-04T19:00:00Z,24.9180,-80.7470,1.0,24.67,2 
ENP,ioos.station.NOAA.NDBC:PKYF1:1,2017-12-04T20:00:00Z,24.9180,-80.7470,1.0,24.74,2 
ENP,ioos.station.NOAA.NDBC:PKYF1:1,2017-12-04T21:00:00Z,24.9180,-80.7470,1.0,24.7,2 
ENP,ioos.station.NOAA.NDBC:PKYF1:1,2017-12-04T22:00:00Z,24.9180,-80.7470,1.0,24.6,2 
ENP,ioos.station.NOAA.NDBC:PKYF1:1,2017-12-04T23:00:00Z,24.9180,-80.7470,1.0,24.47,2 
ENP,ioos.station.NOAA.NDBC:PKYF1:1,2017-12-05T00:00:00Z,24.9180,-80.7470,1.0,24.31,2 
ENP,ioos.station.NOAA.NDBC:PKYF1:1,2017-12-05T13:00:00Z,24.9180,-80.7470,1.0,23.61,2 
ENP,ioos.station.NOAA.NDBC:PKYF1:1,2017-12-05T14:00:00Z,24.9180,-80.7470,1.0,23.71,2 
ENP,ioos.station.NOAA.NDBC:PKYF1:1,2017-12-05T15:00:00Z,24.9180,-80.7470,1.0,23.78,2 
ENP,ioos.station.NOAA.NDBC:PKYF1:1,2017-12-05T16:00:00Z,24.9180,-80.7470,1.0,24.23,2 
ENP,ioos.station.NOAA.NDBC:PKYF1:1,2017-12-05T17:00:00Z,24.9180,-80.7470,1.0,24.56,2 
ENP,ioos.station.NOAA.NDBC:PKYF1:1,2017-12-05T18:00:00Z,24.9180,-80.7470,1.0,24.88,2 
ENP,ioos.station.NOAA.NDBC:PKYF1:1,2017-12-05T19:00:00Z,24.9180,-80.7470,1.0,24.9,2 
ENP,ioos.station.NOAA.NDBC:PKYF1:1,2017-12-05T20:00:00Z,24.9180,-80.7470,1.0,24.87,2 
ENP,ioos.station.NOAA.NDBC:PKYF1:1,2017-12-05T21:00:00Z,24.9180,-80.7470,1.0,24.85,2 
ENP,ioos.station.NOAA.NDBC:PKYF1:1,2017-12-05T22:00:00Z,24.9180,-80.7470,1.0,24.78,2 
ENP,ioos.station.NOAA.NDBC:PKYF1:1,2017-12-05T23:00:00Z,24.9180,-80.7470,1.0,24.66,2 
ENP,ioos.station.NOAA.NDBC:PKYF1:1,2017-12-06T00:00:00Z,24.9180,-80.7470,1.0,24.57,2 
ENP,ioos.station.NOAA.NDBC:PKYF1:1,2017-12-06T01:00:00Z,24.9180,-80.7470,1.0,24.58,2 
ENP,ioos.station.NOAA.NDBC:PKYF1:1,2017-12-06T02:00:00Z,24.9180,-80.7470,1.0,24.68,2 
ENP,ioos.station.NOAA.NDBC:PKYF1:1,2017-12-06T04:00:00Z,24.9180,-80.7470,1.0,24.65,2 
ENP,ioos.station.NOAA.NDBC:PKYF1:1,2017-12-06T05:00:00Z,24.9180,-80.7470,1.0,24.55,2 
ENP,ioos.station.NOAA.NDBC:PKYF1:1,2017-12-06T07:00:00Z,24.9180,-80.7470,1.0,24.46,2 
ENP,ioos.station.NOAA.NDBC:PKYF1:1,2017-12-06T08:00:00Z,24.9180,-80.7470,1.0,24.41,2 
ENP,ioos.station.NOAA.NDBC:PKYF1:1,2017-12-06T09:00:00Z,24.9180,-80.7470,1.0,24.34,2 
ENP,ioos.station.NOAA.NDBC:PKYF1:1,2017-12-06T10:00:00Z,24.9180,-80.7470,1.0,24.34,2 
ENP,ioos.station.NOAA.NDBC:PKYF1:1,2017-12-06T13:00:00Z,24.9180,-80.7470,1.0,24.36,2 
ENP,ioos.station.NOAA.NDBC:PKYF1:1,2017-12-06T14:00:00Z,24.9180,-80.7470,1.0,24.38,2 
ENP,ioos.station.NOAA.NDBC:PKYF1:1,2017-12-06T15:00:00Z,24.9180,-80.7470,1.0,24.49,2 
ENP,ioos.station.NOAA.NDBC:PKYF1:1,2017-12-06T16:00:00Z,24.9180,-80.7470,1.0,24.66,2 
ENP,ioos.station.NOAA.NDBC:PKYF1:1,2017-12-06T17:00:00Z,24.9180,-80.7470,1.0,25.06,2 
ENP,ioos.station.NOAA.NDBC:PKYF1:1,2017-12-06T18:00:00Z,24.9180,-80.7470,1.0,25.2,2 
ENP,ioos.station.NOAA.NDBC:PKYF1:1,2017-12-06T19:00:00Z,24.9180,-80.7470,1.0,25.68,2 
ENP,ioos.station.NOAA.NDBC:PKYF1:1,2017-12-06T20:00:00Z,24.9180,-80.7470,1.0,25.45,2 
ENP,ioos.station.NOAA.NDBC:PKYF1:1,2017-12-06T21:00:00Z,24.9180,-80.7470,1.0,25.33,2 
ENP,ioos.station.NOAA.NDBC:PKYF1:1,2017-12-06T22:00:00Z,24.9180,-80.7470,1.0,25.25,2 
ENP,ioos.station.NOAA.NDBC:PKYF1:1,2017-12-06T23:00:00Z,24.9180,-80.7470,1.0,25.07,2 
ENP,ioos.station.NOAA.NDBC:PKYF1:1,2017-12-07T00:00:00Z,24.9180,-80.7470,1.0,25.0,2 
ENP,ioos.station.NOAA.NDBC:PKYF1:1,2017-12-07T01:00:00Z,24.9180,-80.7470,1.0,24.89,2 
ENP,ioos.station.NOAA.NDBC:PKYF1:1,2017-12-07T02:00:00Z,24.9180,-80.7470,1.0,25.02,2 
ENP,ioos.station.NOAA.NDBC:PKYF1:1,2017-12-07T04:00:00Z,24.9180,-80.7470,1.0,25.2,2 
ENP,ioos.station.NOAA.NDBC:PKYF1:1,2017-12-07T05:00:00Z,24.9180,-80.7470,1.0,25.27,2 
ENP,ioos.station.NOAA.NDBC:PKYF1:1,2017-12-07T07:00:00Z,24.9180,-80.7470,1.0,25.07,2 
ENP,ioos.station.NOAA.NDBC:PKYF1:1,2017-12-07T08:00:00Z,24.9180,-80.7470,1.0,25.04,2 
ENP,ioos.station.NOAA.NDBC:PKYF1:1,2017-12-07T09:00:00Z,24.9180,-80.7470,1.0,24.99,2 
ENP,ioos.station.NOAA.NDBC:PKYF1:1,2017-12-07T10:00:00Z,24.9180,-80.7470,1.0,25.07,2 
ENP,ioos.station.NOAA.NDBC:PKYF1:1,2017-12-07T13:00:00Z,24.9180,-80.7470,1.0,24.86,2 
ENP,ioos.station.NOAA.NDBC:PKYF1:1,2017-12-07T14:00:00Z,24.9180,-80.7470,1.0,24.82,2 
ENP,ioos.station.NOAA.NDBC:PKYF1:1,2017-12-07T15:00:00Z,24.9180,-80.7470,1.0,25.08,2 
ENP,ioos.station.NOAA.NDBC:PKYF1:1,2017-12-07T16:00:00Z,24.9180,-80.7470,1.0,25.18,2 
ENP,ioos.station.NOAA.NDBC:PKYF1:1,2017-12-07T17:00:00Z,24.9180,-80.7470,1.0,25.33,2 
ENP,ioos.station.NOAA.NDBC:PKYF1:1,2017-12-07T18:00:00Z,24.9180,-80.7470,1.0,25.7,2 
ENP,ioos.station.NOAA.NDBC:PKYF1:1,2017-12-07T19:00:00Z,24.9180,-80.7470,1.0,25.82,2 
ENP,ioos.station.NOAA.NDBC:PKYF1:1,2017-12-07T20:00:00Z,24.9180,-80.7470,1.0,25.92,2 
ENP,ioos.station.NOAA.NDBC:PKYF1:1,2017-12-07T22:00:00Z,24.9180,-80.7470,1.0,25.77,2 
ENP,ioos.station.NOAA.NDBC:PKYF1:1,2017-12-07T23:00:00Z,24.9180,-80.7470,1.0,25.65,2 
ENP,ioos.station.NOAA.NDBC:PKYF1:1,2017-12-08T00:00:00Z,24.9180,-80.7470,1.0,25.59,2 
ENP,ioos.station.NOAA.NDBC:PKYF1:1,2017-12-08T01:00:00Z,24.9180,-80.7470,1.0,25.57,2 
ENP,ioos.station.NOAA.NDBC:PKYF1:1,2017-12-08T02:00:00Z,24.9180,-80.7470,1.0,25.5,2 
ENP,ioos.station.NOAA.NDBC:PKYF1:1,2017-12-08T04:00:00Z,24.9180,-80.7470,1.0,25.92,2 
ENP,ioos.station.NOAA.NDBC:PKYF1:1,2017-12-08T05:00:00Z,24.9180,-80.7470,1.0,25.64,2 
ENP,ioos.station.NOAA.NDBC:PKYF1:1,2017-12-08T07:00:00Z,24.9180,-80.7470,1.0,25.48,2 
ENP,ioos.station.NOAA.NDBC:PKYF1:1,2017-12-08T08:00:00Z,24.9180,-80.7470,1.0,25.41,2 
ENP,ioos.station.NOAA.NDBC:PKYF1:1,2017-12-08T09:00:00Z,24.9180,-80.7470,1.0,25.33,2 
ENP,ioos.station.NOAA.NDBC:PKYF1:1,2017-12-08T10:00:00Z,24.9180,-80.7470,1.0,25.29,2 
ENP,ioos.station.NOAA.NDBC:PKYF1:1,2017-12-08T12:00:00Z,24.9180,-80.7470,1.0,25.21,2 
ENP,ioos.station.NOAA.NDBC:PKYF1:1,2017-12-08T13:00:00Z,24.9180,-80.7470,1.0,25.25,2 
ENP,ioos.station.NOAA.NDBC:PKYF1:1,2017-12-08T19:00:00Z,24.9180,-80.7470,1.0,26.63,2 
ENP,ioos.station.NOAA.NDBC:PKYF1:1,2017-12-08T20:00:00Z,24.9180,-80.7470,1.0,26.62,2 
ENP,ioos.station.NOAA.NDBC:PKYF1:1,2017-12-08T21:00:00Z,24.9180,-80.7470,1.0,26.6,2 
ENP,ioos.station.NOAA.NDBC:PKYF1:1,2017-12-08T22:00:00Z,24.9180,-80.7470,1.0,26.61,2 
ENP,ioos.station.NOAA.NDBC:PKYF1:1,2017-12-08T23:00:00Z,24.9180,-80.7470,1.0,26.56,2 
ENP,ioos.station.NOAA.NDBC:PKYF1:1,2017-12-09T00:00:00Z,24.9180,-80.7470,1.0,26.5,2 
ENP,ioos.station.NOAA.NDBC:PKYF1:1,2017-12-09T01:00:00Z,24.9180,-80.7470,1.0,26.39,2 
ENP,ioos.station.NOAA.NDBC:PKYF1:1,2017-12-09T02:00:00Z,24.9180,-80.7470,1.0,26.18,2 
ENP,ioos.station.NOAA.NDBC:PKYF1:1,2017-12-09T04:00:00Z,24.9180,-80.7470,1.0,26.19,2 
ENP,ioos.station.NOAA.NDBC:PKYF1:1,2017-12-09T05:00:00Z,24.9180,-80.7470,1.0,26.11,2 
ENP,ioos.station.NOAA.NDBC:PKYF1:1,2017-12-09T07:00:00Z,24.9180,-80.7470,1.0,25.91,2 
ENP,ioos.station.NOAA.NDBC:PKYF1:1,2017-12-09T08:00:00Z,24.9180,-80.7470,1.0,25.91,2 
ENP,ioos.station.NOAA.NDBC:PKYF1:1,2017-12-09T09:00:00Z,24.9180,-80.7470,1.0,25.9,2 
ENP,ioos.station.NOAA.NDBC:PKYF1:1,2017-12-09T10:00:00Z,24.9180,-80.7470,1.0,25.89,2 
ENP,ioos.station.NOAA.NDBC:PKYF1:1,2017-12-09T12:00:00Z,24.9180,-80.7470,1.0,25.7,2 
ENP,ioos.station.NOAA.NDBC:PKYF1:1,2017-12-09T13:00:00Z,24.9180,-80.7470,1.0,25.67,2 
ENP,ioos.station.NOAA.NDBC:PKYF1:1,2017-12-09T14:00:00Z,24.9180,-80.7470,1.0,25.63,2 
ENP,ioos.station.NOAA.NDBC:PKYF1:1,2017-12-09T15:00:00Z,24.9180,-80.7470,1.0,25.67,2 
ENP,ioos.station.NOAA.NDBC:PKYF1:1,2017-12-09T16:00:00Z,24.9180,-80.7470,1.0,25.38,2 
ENP,ioos.station.NOAA.NDBC:PKYF1:1,2017-12-09T17:00:00Z,24.9180,-80.7470,1.0,25.39,2 
ENP,ioos.station.NOAA.NDBC:PKYF1:1,2017-12-09T18:00:00Z,24.9180,-80.7470,1.0,25.29,2 
ENP,ioos.station.NOAA.NDBC:PKYF1:1,2017-12-09T19:00:00Z,24.9180,-80.7470,1.0,25.22,2 
ENP,ioos.station.NOAA.NDBC:PKYF1:1,2017-12-09T20:00:00Z,24.9180,-80.7470,1.0,25.21,2 
ENP,ioos.station.NOAA.NDBC:PKYF1:1,2017-12-09T21:00:00Z,24.9180,-80.7470,1.0,25.31,2 
ENP,ioos.station.NOAA.NDBC:PKYF1:1,2017-12-09T22:00:00Z,24.9180,-80.7470,1.0,25.24,2 
ENP,ioos.station.NOAA.NDBC:PKYF1:1,2017-12-09T23:00:00Z,24.9180,-80.7470,1.0,24.92,2 
ENP,ioos.station.NOAA.NDBC:PKYF1:1,2017-12-10T00:00:00Z,24.9180,-80.7470,1.0,24.73,2 
ENP,ioos.station.NOAA.NDBC:PKYF1:1,2017-12-10T01:00:00Z,24.9180,-80.7470,1.0,24.47,2 
ENP,ioos.station.NOAA.NDBC:PKYF1:1,2017-12-10T02:00:00Z,24.9180,-80.7470,1.0,24.43,2 
ENP,ioos.station.NOAA.NDBC:PKYF1:1,2017-12-10T04:00:00Z,24.9180,-80.7470,1.0,24.14,2 
ENP,ioos.station.NOAA.NDBC:PKYF1:1,2017-12-10T05:00:00Z,24.9180,-80.7470,1.0,23.76,2 
ENP,ioos.station.NOAA.NDBC:PKYF1:1,2017-12-10T15:00:00Z,24.9180,-80.7470,1.0,20.79,2 
ENP,ioos.station.NOAA.NDBC:PKYF1:1,2017-12-10T16:00:00Z,24.9180,-80.7470,1.0,20.56,2 
ENP,ioos.station.NOAA.NDBC:PKYF1:1,2017-12-10T17:00:00Z,24.9180,-80.7470,1.0,20.6,2 
ENP,ioos.station.NOAA.NDBC:PKYF1:1,2017-12-10T18:00:00Z,24.9180,-80.7470,1.0,20.68,2 
ENP,ioos.station.NOAA.NDBC:PKYF1:1,2017-12-10T19:00:00Z,24.9180,-80.7470,1.0,20.78,2 
ENP,ioos.station.NOAA.NDBC:PKYF1:1,2017-12-10T20:00:00Z,24.9180,-80.7470,1.0,21.01,2 
ENP,ioos.station.NOAA.NDBC:PKYF1:1,2017-12-10T21:00:00Z,24.9180,-80.7470,1.0,20.68,2 
ENP,ioos.station.NOAA.NDBC:PKYF1:1,2017-12-12T14:00:00Z,24.9180,-80.7470,1.0,17.33,2 
ENP,ioos.station.NOAA.NDBC:PKYF1:1,2017-12-12T15:00:00Z,24.9180,-80.7470,1.0,17.35,2 
ENP,ioos.station.NOAA.NDBC:PKYF1:1,2017-12-12T16:00:00Z,24.9180,-80.7470,1.0,17.47,2 
ENP,ioos.station.NOAA.NDBC:PKYF1:1,2017-12-12T17:00:00Z,24.9180,-80.7470,1.0,17.66,2 
ENP,ioos.station.NOAA.NDBC:PKYF1:1,2017-12-12T18:00:00Z,24.9180,-80.7470,1.0,18.28,2 
ENP,ioos.station.NOAA.NDBC:PKYF1:1,2017-12-12T19:00:00Z,24.9180,-80.7470,1.0,18.74,2 
ENP,ioos.station.NOAA.NDBC:PKYF1:1,2017-12-12T20:00:00Z,24.9180,-80.7470,1.0,18.57,2 
ENP,ioos.station.NOAA.NDBC:PKYF1:1,2017-12-12T21:00:00Z,24.9180,-80.7470,1.0,18.54,2 
ENP,ioos.station.NOAA.NDBC:PKYF1:1,2017-12-12T22:00:00Z,24.9180,-80.7470,1.0,18.43,2 
ENP,ioos.station.NOAA.NDBC:PKYF1:1,2017-12-13T09:00:00Z,24.9180,-80.7470,1.0,17.83,2 
ENP,ioos.station.NOAA.NDBC:PKYF1:1,2017-12-13T10:00:00Z,24.9180,-80.7470,1.0,17.38,2 
ENP,ioos.station.NOAA.NDBC:PKYF1:1,2017-12-13T12:00:00Z,24.9180,-80.7470,1.0,17.31,2 
ENP,ioos.station.NOAA.NDBC:PKYF1:1,2017-12-13T13:00:00Z,24.9180,-80.7470,1.0,17.23,2 
ENP,ioos.station.NOAA.NDBC:PKYF1:1,2017-12-13T14:00:00Z,24.9180,-80.7470,1.0,17.25,2 
ENP,ioos.station.NOAA.NDBC:PKYF1:1,2017-12-13T17:00:00Z,24.9180,-80.7470,1.0,17.67,2 
ENP,ioos.station.NOAA.NDBC:PKYF1:1,2017-12-13T18:00:00Z,24.9180,-80.7470,1.0,17.88,2 
ENP,ioos.station.NOAA.NDBC:PKYF1:1,2017-12-13T19:00:00Z,24.9180,-80.7470,1.0,18.09,2 
ENP,ioos.station.NOAA.NDBC:PKYF1:1,2017-12-13T20:00:00Z,24.9180,-80.7470,1.0,18.49,2 
ENP,ioos.station.NOAA.NDBC:PKYF1:1,2017-12-13T21:00:00Z,24.9180,-80.7470,1.0,18.28,2 
ENP,ioos.station.NOAA.NDBC:PKYF1:1,2017-12-13T22:00:00Z,24.9180,-80.7470,1.0,18.08,2 
ENP,ioos.station.NOAA.NDBC:PKYF1:1,2017-12-14T10:00:00Z,24.9180,-80.7470,1.0,17.08,2 
ENP,ioos.station.NOAA.NDBC:PKYF1:1,2017-12-14T12:00:00Z,24.9180,-80.7470,1.0,16.68,2 
ENP,ioos.station.NOAA.NDBC:PKYF1:1,2017-12-14T13:00:00Z,24.9180,-80.7470,1.0,16.66,2 
ENP,ioos.station.NOAA.NDBC:PKYF1:1,2017-12-14T14:00:00Z,24.9180,-80.7470,1.0,16.63,2 
ENP,ioos.station.NOAA.NDBC:PKYF1:1,2017-12-14T15:00:00Z,24.9180,-80.7470,1.0,16.86,2 
ENP,ioos.station.NOAA.NDBC:PKYF1:1,2017-12-14T16:00:00Z,24.9180,-80.7470,1.0,17.4,2 
ENP,ioos.station.NOAA.NDBC:PKYF1:1,2017-12-14T17:00:00Z,24.9180,-80.7470,1.0,17.54,2 
ENP,ioos.station.NOAA.NDBC:PKYF1:1,2017-12-14T18:00:00Z,24.9180,-80.7470,1.0,17.8,2 
ENP,ioos.station.NOAA.NDBC:PKYF1:1,2017-12-14T19:00:00Z,24.9180,-80.7470,1.0,18.05,2 
ENP,ioos.station.NOAA.NDBC:PKYF1:1,2017-12-14T20:00:00Z,24.9180,-80.7470,1.0,18.4,2 
ENP,ioos.station.NOAA.NDBC:PKYF1:1,2017-12-14T23:00:00Z,24.9180,-80.7470,1.0,18.24,2 
ENP,ioos.station.NOAA.NDBC:PKYF1:1,2017-12-15T00:00:00Z,24.9180,-80.7470,1.0,17.85,2 
ENP,ioos.station.NOAA.NDBC:PKYF1:1,2017-12-15T01:00:00Z,24.9180,-80.7470,1.0,17.76,2 
ENP,ioos.station.NOAA.NDBC:PKYF1:1,2017-12-15T02:00:00Z,24.9180,-80.7470,1.0,17.68,2 
ENP,ioos.station.NOAA.NDBC:PKYF1:1,2017-12-15T05:00:00Z,24.9180,-80.7470,1.0,17.58,2 
ENP,ioos.station.NOAA.NDBC:PKYF1:1,2017-12-15T08:00:00Z,24.9180,-80.7470,1.0,17.41,2 
ENP,ioos.station.NOAA.NDBC:PKYF1:1,2017-12-15T09:00:00Z,24.9180,-80.7470,1.0,17.44,2 
ENP,ioos.station.NOAA.NDBC:PKYF1:1,2017-12-15T10:00:00Z,24.9180,-80.7470,1.0,17.67,2 
ENP,ioos.station.NOAA.NDBC:PKYF1:1,2017-12-15T12:00:00Z,24.9180,-80.7470,1.0,17.68,2 
ENP,ioos.station.NOAA.NDBC:PKYF1:1,2017-12-15T13:00:00Z,24.9180,-80.7470,1.0,17.62,2 
ENP,ioos.station.NOAA.NDBC:PKYF1:1,2017-12-15T14:00:00Z,24.9180,-80.7470,1.0,17.58,2 
ENP,ioos.station.NOAA.NDBC:PKYF1:1,2017-12-15T15:00:00Z,24.9180,-80.7470,1.0,17.72,2 
ENP,ioos.station.NOAA.NDBC:PKYF1:1,2017-12-15T16:00:00Z,24.9180,-80.7470,1.0,18.13,2 
ENP,ioos.station.NOAA.NDBC:PKYF1:1,2017-12-15T17:00:00Z,24.9180,-80.7470,1.0,18.4,2 
ENP,ioos.station.NOAA.NDBC:PKYF1:1,2017-12-15T18:00:00Z,24.9180,-80.7470,1.0,18.59,2 
ENP,ioos.station.NOAA.NDBC:PKYF1:1,2017-12-15T19:00:00Z,24.9180,-80.7470,1.0,18.76,2 
ENP,ioos.station.NOAA.NDBC:PKYF1:1,2017-12-15T20:00:00Z,24.9180,-80.7470,1.0,18.85,2 
ENP,ioos.station.NOAA.NDBC:PKYF1:1,2017-12-15T21:00:00Z,24.9180,-80.7470,1.0,19.06,2 
ENP,ioos.station.NOAA.NDBC:PKYF1:1,2017-12-15T22:00:00Z,24.9180,-80.7470,1.0,19.44,2 
ENP,ioos.station.NOAA.NDBC:PKYF1:1,2017-12-15T23:00:00Z,24.9180,-80.7470,1.0,19.25,2 
ENP,ioos.station.NOAA.NDBC:PKYF1:1,2017-12-16T00:00:00Z,24.9180,-80.7470,1.0,19.05,2 
ENP,ioos.station.NOAA.NDBC:PKYF1:1,2017-12-16T01:00:00Z,24.9180,-80.7470,1.0,19.05,2 
ENP,ioos.station.NOAA.NDBC:PKYF1:1,2017-12-16T02:00:00Z,24.9180,-80.7470,1.0,19.01,2 
ENP,ioos.station.NOAA.NDBC:PKYF1:1,2017-12-16T04:00:00Z,24.9180,-80.7470,1.0,18.92,2 
ENP,ioos.station.NOAA.NDBC:PKYF1:1,2017-12-16T05:00:00Z,24.9180,-80.7470,1.0,18.8,2 
ENP,ioos.station.NOAA.NDBC:PKYF1:1,2017-12-16T07:00:00Z,24.9180,-80.7470,1.0,18.98,2 
ENP,ioos.station.NOAA.NDBC:PKYF1:1,2017-12-16T08:00:00Z,24.9180,-80.7470,1.0,19.1,2 
ENP,ioos.station.NOAA.NDBC:PKYF1:1,2017-12-16T09:00:00Z,24.9180,-80.7470,1.0,19.07,2 
ENP,ioos.station.NOAA.NDBC:PKYF1:1,2017-12-16T10:00:00Z,24.9180,-80.7470,1.0,19.1,2 
ENP,ioos.station.NOAA.NDBC:PKYF1:1,2017-12-16T12:00:00Z,24.9180,-80.7470,1.0,18.96,2 
ENP,ioos.station.NOAA.NDBC:PKYF1:1,2017-12-16T13:00:00Z,24.9180,-80.7470,1.0,18.83,2 
ENP,ioos.station.NOAA.NDBC:PKYF1:1,2017-12-16T14:00:00Z,24.9180,-80.7470,1.0,18.66,2 
ENP,ioos.station.NOAA.NDBC:PKYF1:1,2017-12-16T15:00:00Z,24.9180,-80.7470,1.0,18.74,2 
ENP,ioos.station.NOAA.NDBC:PKYF1:1,2017-12-16T16:00:00Z,24.9180,-80.7470,1.0,18.87,2 
ENP,ioos.station.NOAA.NDBC:PKYF1:1,2017-12-16T17:00:00Z,24.9180,-80.7470,1.0,19.11,2 
ENP,ioos.station.NOAA.NDBC:PKYF1:1,2017-12-16T18:00:00Z,24.9180,-80.7470,1.0,19.32,2 
ENP,ioos.station.NOAA.NDBC:PKYF1:1,2017-12-16T19:00:00Z,24.9180,-80.7470,1.0,19.6,2 
ENP,ioos.station.NOAA.NDBC:PKYF1:1,2017-12-16T20:00:00Z,24.9180,-80.7470,1.0,19.72,2 
ENP,ioos.station.NOAA.NDBC:PKYF1:1,2017-12-16T21:00:00Z,24.9180,-80.7470,1.0,19.86,2 
ENP,ioos.station.NOAA.NDBC:PKYF1:1,2017-12-16T22:00:00Z,24.9180,-80.7470,1.0,20.04,2 
ENP,ioos.station.NOAA.NDBC:PKYF1:1,2017-12-16T23:00:00Z,24.9180,-80.7470,1.0,20.17,2 
ENP,ioos.station.NOAA.NDBC:PKYF1:1,2017-12-17T00:00:00Z,24.9180,-80.7470,1.0,19.98,2 
ENP,ioos.station.NOAA.NDBC:PKYF1:1,2017-12-17T01:00:00Z,24.9180,-80.7470,1.0,19.85,2 
ENP,ioos.station.NOAA.NDBC:PKYF1:1,2017-12-17T02:00:00Z,24.9180,-80.7470,1.0,19.85,2 
ENP,ioos.station.NOAA.NDBC:PKYF1:1,2017-12-17T04:00:00Z,24.9180,-80.7470,1.0,19.64,2 
ENP,ioos.station.NOAA.NDBC:PKYF1:1,2017-12-17T05:00:00Z,24.9180,-80.7470,1.0,19.66,2 
ENP,ioos.station.NOAA.NDBC:PKYF1:1,2017-12-17T07:00:00Z,24.9180,-80.7470,1.0,19.65,2 
ENP,ioos.station.NOAA.NDBC:PKYF1:1,2017-12-17T08:00:00Z,24.9180,-80.7470,1.0,19.64,2 
ENP,ioos.station.NOAA.NDBC:PKYF1:1,2017-12-17T09:00:00Z,24.9180,-80.7470,1.0,19.59,2 
ENP,ioos.station.NOAA.NDBC:PKYF1:1,2017-12-17T10:00:00Z,24.9180,-80.7470,1.0,19.54,2 
ENP,ioos.station.NOAA.NDBC:PKYF1:1,2017-12-17T13:00:00Z,24.9180,-80.7470,1.0,19.41,2 
ENP,ioos.station.NOAA.NDBC:PKYF1:1,2017-12-17T14:00:00Z,24.9180,-80.7470,1.0,19.5,2 
ENP,ioos.station.NOAA.NDBC:PKYF1:1,2017-12-17T15:00:00Z,24.9180,-80.7470,1.0,19.78,2 
ENP,ioos.station.NOAA.NDBC:PKYF1:1,2017-12-17T16:00:00Z,24.9180,-80.7470,1.0,20.04,2 
ENP,ioos.station.NOAA.NDBC:PKYF1:1,2017-12-17T17:00:00Z,24.9180,-80.7470,1.0,20.56,2 
ENP,ioos.station.NOAA.NDBC:PKYF1:1,2017-12-17T18:00:00Z,24.9180,-80.7470,1.0,20.36,2 
ENP,ioos.station.NOAA.NDBC:PKYF1:1,2017-12-17T19:00:00Z,24.9180,-80.7470,1.0,20.41,2 
ENP,ioos.station.NOAA.NDBC:PKYF1:1,2017-12-17T20:00:00Z,24.9180,-80.7470,1.0,20.43,2 
ENP,ioos.station.NOAA.NDBC:PKYF1:1,2017-12-17T21:00:00Z,24.9180,-80.7470,1.0,20.43,2 
ENP,ioos.station.NOAA.NDBC:PKYF1:1,2017-12-17T22:00:00Z,24.9180,-80.7470,1.0,20.49,2 
ENP,ioos.station.NOAA.NDBC:PKYF1:1,2017-12-17T23:00:00Z,24.9180,-80.7470,1.0,20.73,2 
ENP,ioos.station.NOAA.NDBC:PKYF1:1,2017-12-18T00:00:00Z,24.9180,-80.7470,1.0,20.72,2 
ENP,ioos.station.NOAA.NDBC:PKYF1:1,2017-12-18T01:00:00Z,24.9180,-80.7470,1.0,20.69,2 
ENP,ioos.station.NOAA.NDBC:PKYF1:1,2017-12-18T02:00:00Z,24.9180,-80.7470,1.0,20.66,2 
ENP,ioos.station.NOAA.NDBC:PKYF1:1,2017-12-18T04:00:00Z,24.9180,-80.7470,1.0,20.66,2 
ENP,ioos.station.NOAA.NDBC:PKYF1:1,2017-12-18T05:00:00Z,24.9180,-80.7470,1.0,20.62,2 
ENP,ioos.station.NOAA.NDBC:PKYF1:1,2017-12-18T07:00:00Z,24.9180,-80.7470,1.0,20.52,2 
ENP,ioos.station.NOAA.NDBC:PKYF1:1,2017-12-18T08:00:00Z,24.9180,-80.7470,1.0,20.48,2 
ENP,ioos.station.NOAA.NDBC:PKYF1:1,2017-12-18T09:00:00Z,24.9180,-80.7470,1.0,20.41,2 
ENP,ioos.station.NOAA.NDBC:PKYF1:1,2017-12-18T10:00:00Z,24.9180,-80.7470,1.0,20.31,2 
ENP,ioos.station.NOAA.NDBC:PKYF1:1,2017-12-18T12:00:00Z,24.9180,-80.7470,1.0,20.14,2 
ENP,ioos.station.NOAA.NDBC:PKYF1:1,2017-12-18T13:00:00Z,24.9180,-80.7470,1.0,20.1,2 
ENP,ioos.station.NOAA.NDBC:PKYF1:1,2017-12-18T14:00:00Z,24.9180,-80.7470,1.0,20.18,2 
ENP,ioos.station.NOAA.NDBC:PKYF1:1,2017-12-18T15:00:00Z,24.9180,-80.7470,1.0,20.49,2 
ENP,ioos.station.NOAA.NDBC:PKYF1:1,2017-12-18T16:00:00Z,24.9180,-80.7470,1.0,20.81,2 
ENP,ioos.station.NOAA.NDBC:PKYF1:1,2017-12-18T17:00:00Z,24.9180,-80.7470,1.0,21.04,2 
ENP,ioos.station.NOAA.NDBC:PKYF1:1,2017-12-18T18:00:00Z,24.9180,-80.7470,1.0,21.32,2 